Location: Unspecified
(0.0000°N, 0.0000°E)
Time: 03:30:30
(UTC+00:00)

deb r/b Ablestar - Pass Details

Date: 24 September 2024
Orbit: 702 x 890 km, 66.9° (Epoch: 08 October)

Event Time Altitude Azimuth Distance (km) Brightness Sun altitude
Exits shadow 04:56:52 13° 233° (SW) 1,997 ? -13.8°
Drops below altitude 10° 04:58:18 10° 217° (SW) 2,222 ? -13.4°
Sets 05:01:51 0° 193° (SSW) 3,182 ? -12.5°
